This is the latest recevied weather packets stored in our database for station/object KU9TRY. If no packets are shown the sender has not sent any weather packets the latest 10 day(s).
| Time | Temp. | Humidity | Pressure | Rain* | Wind** | Luminosity | Snow |
|---|---|---|---|---|---|---|---|
| 1787759844 | 29.44° C | 55% | 1017.6 hPa | 0 mm | - | 708 W/m² | - |
| 1787759539 | 28.33° C | 57% | 1017.5 hPa | 0 mm | - | 863 W/m² | - |
| 1787759235 | 28.89° C | 57% | 1017.4 hPa | 0 mm | - | 694 W/m² | - |
| 1787758934 | 29.44° C | 59% | 1017 hPa | 0 mm | - | 513 W/m² | - |
| 1787758629 | 29.44° C | 59% | 1017 hPa | 0 mm | - | 765 W/m² | - |
| 1787758328 | 28.89° C | 62% | 1017 hPa | 0 mm | - | 778 W/m² | - |
| 1787758023 | 28.33° C | 59% | 1017.1 hPa | 0 mm | - | 712 W/m² | - |
| 1787757720 | 28.33° C | 64% | 1017 hPa | 0 mm | - | 590 W/m² | - |
| 1787757419 | 27.78° C | 62% | 1017.5 hPa | 0 mm | - | 523 W/m² | - |
| 1787757114 | 27.22° C | 69% | 1017.4 hPa | 0 mm | - | 424 W/m² | - |
| 1787756813 | 27.22° C | 63% | 1017.2 hPa | 0 mm | - | 399 W/m² | - |
| 1787756509 | 27.22° C | 66% | 1017.6 hPa | 0 mm | - | 432 W/m² | - |
| 1787756207 | 27.22° C | 65% | 1017.5 hPa | 0 mm | - | 473 W/m² | - |
| 1787755903 | 26.67° C | 68% | 1017.6 hPa | 0 mm | - | 385 W/m² | - |
| 1787755603 | 26.67° C | 66% | 1017.7 hPa | 0 mm | - | 343 W/m² | - |
| 1787755303 | 26.67° C | 67% | 1017.8 hPa | 0 mm | - | 343 W/m² | - |
| 1787755002 | 26.67° C | 67% | 1017.9 hPa | 0 mm | - | 364 W/m² | - |
| 1787754701 | 26.11° C | 72% | 1017.9 hPa | 0 mm | - | 312 W/m² | - |
| 1787754399 | 26.11° C | 71% | 1017.6 hPa | 0 mm | - | 470 W/m² | - |
| 1787754095 | 25° C | 72% | 1017.9 hPa | 0 mm | - | 656 W/m² | - |
| 1787753795 | 24.44° C | 74% | 1017.7 hPa | 0 mm | - | 587 W/m² | - |
| 1787753493 | 23.33° C | 78% | 1017.7 hPa | 0 mm | - | 495 W/m² | - |
| 1787753193 | 23.33° C | 79% | 1017.9 hPa | 0 mm | - | 390 W/m² | - |
| 1787752887 | 23.33° C | 79% | 1017.8 hPa | 0 mm | - | 227 W/m² | - |
| 1787752586 | 22.78° C | 80% | 1017.8 hPa | 0 mm | - | 186 W/m² | - |
* Rain latest hour (hover to see other rain measurements)
** Current wind speed in m/s (hover to see current wind gust speed)